Home > Weather > Zomba > Past weeks

Flag for Malawi Weather for the Past 2 Weeks in Zomba, Malawi

Now
79 °F

Clear.


Feels Like: 82 °F
Forecast: 64 / 77 °F
Wind: 3 mph from Southeast

Location: Quelimane Airport

Current Time: Feb 15, 2016 at 12:15:17 AM

Latest Report: Feb 14, 2016 at 11:00 PM


Visibility: 10 mi

Pressure: 29.83 "Hg (26.92 "Hg at 897m altitude)

Humidity: 84%

Dew point: 73 °F

Location of ZombaLocation

Historic Weather in Zomba — Graph

°F

Zomba Temperature Yesterday

Maximum temperature yesterday: 90 °F (at 12:00 PM)
Minimum temperature yesterday: 73 °F (at 3:00 AM)
Average temperature yesterday: 82 °F

High & Low Weather Summary for the Past Weeks

 TemperatureHumidityPressure
High93 °F (Feb 3, 1:00 PM)100% (Feb 1, 6:00 AM)30.07 "Hg (Feb 1, 6:00 AM)
Low72 °F (Feb 7, 6:00 AM)49% (Feb 14, 1:00 PM)29.71 "Hg (Feb 4, 2:00 PM)
Average82 °F80%29.83 "Hg
* Reported Jan 30 10:00 PM — Feb 14 10:00 PM, Zomba, Weather by CustomWeather, © 2016

Note: Actual official high and low records may vary slightly from our data, if they occured in-between our weather recording intervals... More about our weather records

Advertising

Zomba Weather History for the Previous 24 Hours

 ConditionsComfort  
Time TempWeatherWind HumidityBarometerVisibility
10:00 PM
Sun, Feb 14
81 °FPassing clouds.6 mph79%29.83 "HgN/A
9:00 PM81 °FPassing clouds.7 mph79%29.83 "HgN/A
8:00 PM81 °FPassing clouds.7 mph79%29.83 "HgN/A
7:01 PM82 °FPassing clouds.7 mph66%29.83 "HgN/A
6:00 PM82 °FPassing clouds.8 mph66%29.80 "HgN/A
5:00 PM86 °FPassing clouds.13 mph62%29.80 "HgN/A
4:00 PM88 °FPassing clouds.12 mph55%29.80 "HgN/A
3:00 PM88 °FPassing clouds.10 mph55%29.80 "HgN/A
2:00 PM90 °FPassing clouds.10 mph52%29.80 "HgN/A
1:00 PM90 °FScattered clouds.3 mph49%29.83 "HgN/A
12:00 PM90 °FScattered clouds.No wind52%29.86 "HgN/A
11:00 AM86 °FScattered clouds.6 mph55%29.89 "HgN/A
10:00 AM84 °FScattered clouds.2 mph70%29.89 "HgN/A
9:00 AM82 °FScattered clouds.2 mph74%29.92 "HgN/A
5:00 AM73 °FPassing clouds.2 mph94%29.83 "HgN/A
3:00 AM73 °FClear.2 mph94%29.80 "Hg10 mi
2:00 AM75 °FClear.No wind94%29.80 "Hg10 mi
1:00 AM75 °FClear.2 mph89%29.83 "Hg10 mi
12:00 AM79 °FClear.No wind79%29.83 "Hg10 mi
Weather by CustomWeather, © 2016

See weather overviewHow to use our weather pages